{"data":{"norad_id":63097,"epoch":"2026-09-20T21:23:23.932608Z","epoch_age_seconds":128470,"freshness":"FRESH","line1":"1 63097U 25037W   26263.89124922  .00011259  00000+0  39534-3 0  9992","line2":"2 63097  69.9997 219.8008 0002902 269.1319  90.9524 15.29594294 87901","mean_motion":15.29594294,"eccentricity":0.0002902,"inclination_deg":69.9997,"raan_deg":219.8008,"arg_perigee_deg":269.1319,"mean_anomaly_deg":90.9524,"bstar":0.00039534,"rev_number":8790,"period_min":94.142610602599,"perigee_km":475.03482735241,"apogee_km":479.01356291007,"semimajor_km":6855.1611951312,"source":"CELESTRAK","updated_at":"2026-09-22T09:00:49.761717Z"}}